Change the Weather History Date:

Wednesday, November 7, 2012

  Actual Average Record
Temperature  
Mean Temperature 42 °F -  
Max Temperature 53 °F 63 °F 80 °F (1934)
Min Temperature 32 °F 39 °F 18 °F (1993)
Degree Days  
Heating Degree Days 22    
Moisture  
Dew Point 38 °F    
Average Humidity 81    
Maximum Humidity 100    
Minimum Humidity 54    
Precipitation  
Precipitation 0.00 in - - ()
Sea Level Pressure  
Sea Level Pressure 30.05 in    
Wind  
Wind Speed 5 mph (NW)    
Max Wind Speed 17 mph    
Max Gust Speed 23 mph    
Visibility 8 miles    
Events Fog , Rain    
Averages and records for this station are not official NWS values.
T = Trace of Precipitation, MM = Missing Value Source: NWS Daily Summary

Daily Weather History Graph

Daily Weather History Graph

Search for Another Location

Airport or City:

Trip Planner

Search our weather history database for the weather conditions in past years. The results will help you decide how hot, cold, wet, or windy it might be!

Date:

Astronomy

Nov. 07, 2012 Rise Set
Actual Time 6:21 AM CST 4:54 PM CST
Civil Twilight 5:54 AM CST 5:20 PM CST
Nautical Twilight 5:24 AM CST 5:51 PM CST
Astronomical Twilight 4:55 AM CST 6:20 PM CST
Moon No Moon Rise 12:48 PM CST (11/7)
Length of Visible Light 11h 25m
Length of Day
10h 32m
Last Quarter, 43% of the Moon is Illuminated
Nov 7
Last Quarter
Nov 13
New
Nov 20
First Quarter
Nov 28
Full
Dec 6
Last Quarter

Hourly Weather History & Observations

Time (CST) Temp. Windchill Dew Point Humidity Pressure Visibility Wind Dir Wind Speed Gust Speed Precip Events Conditions
12:05 AM 41.0 °F 39.0 °F 39.2 °F 93% 29.99 in 10.0 mi WSW 3.5 mph - N/A   Mostly Cloudy
12:25 AM 44.6 °F 42.2 °F 41.0 °F 87% 29.99 in 10.0 mi West 4.6 mph - N/A   Overcast
12:45 AM 44.6 °F 41.4 °F 41.0 °F 87% 29.99 in 10.0 mi West 5.8 mph - N/A   Overcast
1:05 AM 44.6 °F 41.4 °F 41.0 °F 87% 29.98 in 10.0 mi WNW 5.8 mph - N/A   Mostly Cloudy
1:25 AM 44.6 °F 40.7 °F 41.0 °F 87% 29.98 in 10.0 mi WNW 6.9 mph - N/A   Overcast
1:45 AM 44.6 °F 41.4 °F 41.0 °F 87% 29.98 in 10.0 mi WNW 5.8 mph - N/A   Overcast
2:05 AM 44.6 °F 42.2 °F 41.0 °F 87% 29.98 in 10.0 mi WNW 4.6 mph - N/A   Overcast
2:25 AM 44.6 °F 40.7 °F 39.2 °F 81% 29.98 in 10.0 mi West 6.9 mph - N/A   Mostly Cloudy
2:45 AM 42.8 °F 41.1 °F 39.2 °F 87% 29.98 in 10.0 mi West 3.5 mph - N/A   Scattered Clouds
3:05 AM 42.8 °F - 39.2 °F 87% 29.98 in 10.0 mi Calm Calm - N/A   Overcast
3:25 AM 42.8 °F 41.1 °F 39.2 °F 87% 29.98 in 10.0 mi West 3.5 mph - N/A   Overcast
3:45 AM 42.8 °F 41.1 °F 39.2 °F 87% 29.98 in 10.0 mi West 3.5 mph - N/A   Overcast
4:05 AM 42.8 °F 41.1 °F 39.2 °F 87% 29.97 in 10.0 mi West 3.5 mph - N/A   Scattered Clouds
4:25 AM 41.0 °F 39.0 °F 39.2 °F 93% 29.98 in 10.0 mi WNW 3.5 mph - N/A   Clear
4:45 AM 41.0 °F - 39.2 °F 93% 29.98 in 10.0 mi Calm Calm - N/A   Clear
5:05 AM 41.0 °F - 39.2 °F 93% 29.98 in 9.0 mi Calm Calm - N/A   Clear
5:25 AM 39.2 °F - 37.4 °F 93% 29.98 in 0.8 mi Calm Calm - N/A   Mist
5:45 AM 37.4 °F - 35.6 °F 93% 29.99 in 0.5 mi Calm Calm - N/A Fog Fog
6:05 AM 37.4 °F - 35.6 °F 93% 29.99 in 0.5 mi Calm Calm - N/A Fog Fog
6:25 AM 37.4 °F - 35.6 °F 93% 29.99 in 0.2 mi Calm Calm - N/A Fog Fog
6:45 AM 35.6 °F - 35.6 °F 100% 29.99 in 0.2 mi Calm Calm - N/A Fog Fog
7:05 AM 37.4 °F - 37.4 °F 100% 30.00 in 0.2 mi Calm Calm - N/A Fog Fog
7:25 AM 41.0 °F 39.0 °F 41.0 °F 100% 30.00 in 7.0 mi West 3.5 mph - N/A   Clear
7:45 AM 44.6 °F 40.7 °F 41.0 °F 87% 30.00 in 10.0 mi WNW 6.9 mph - N/A   Clear
8:05 AM 46.4 °F 41.9 °F 41.0 °F 81% 30.00 in 10.0 mi NW 9.2 mph - N/A   Clear
8:25 AM 48.2 °F - 39.2 °F 71% 30.01 in 10.0 mi NW 11.5 mph 17.3 mph N/A   Clear
8:45 AM 50.0 °F - 41.0 °F 71% 30.02 in 10.0 mi NW 9.2 mph - N/A   Partly Cloudy
9:05 AM 50.0 °F - 39.2 °F 66% 30.02 in 10.0 mi NW 9.2 mph - N/A   Mostly Cloudy
9:25 AM 50.0 °F - 39.2 °F 66% 30.02 in 10.0 mi NW 10.4 mph - N/A   Overcast
9:45 AM 50.0 °F - 39.2 °F 66% 30.02 in 10.0 mi NW 6.9 mph - N/A   Overcast
10:05 AM 51.8 °F - 37.4 °F 58% 30.02 in 10.0 mi NW 6.9 mph - N/A   Overcast
10:25 AM 53.6 °F - 37.4 °F 54% 30.02 in 10.0 mi NW 10.4 mph - N/A   Overcast
10:45 AM 51.8 °F - 37.4 °F 58% 30.02 in 10.0 mi NNW 11.5 mph 20.7 mph N/A   Overcast
11:05 AM 51.8 °F - 37.4 °F 58% 30.02 in 10.0 mi NNW 6.9 mph - N/A   Overcast
11:25 AM 51.8 °F - 37.4 °F 58% 30.01 in 10.0 mi NNW 8.1 mph - N/A   Overcast
11:45 AM 50.0 °F - 35.6 °F 58% 30.01 in 10.0 mi NNW 9.2 mph 17.3 mph N/A Rain Light Rain
12:05 PM 48.2 °F - 37.4 °F 66% 30.01 in 10.0 mi NNW 8.1 mph 19.6 mph N/A Rain Light Rain
12:25 PM 50.0 °F - 39.2 °F 66% 30.01 in 10.0 mi NW 10.4 mph - N/A   Overcast
12:45 PM 50.0 °F - 37.4 °F 62% 30.02 in 10.0 mi NW 17.3 mph 23.0 mph N/A   Overcast
1:05 PM 48.2 °F - 39.2 °F 71% 30.02 in 10.0 mi NW 12.7 mph 18.4 mph N/A   Overcast
1:25 PM 46.4 °F 41.1 °F 41.0 °F 81% 30.03 in 5.0 mi NW 11.5 mph - N/A Rain Light Rain
1:45 PM 46.4 °F 41.1 °F 41.0 °F 81% 30.03 in 3.0 mi NW 11.5 mph 19.6 mph N/A   Haze
2:05 PM 46.4 °F 42.4 °F 39.2 °F 76% 30.04 in 10.0 mi NNW 8.1 mph - N/A Rain Light Rain
2:25 PM 48.2 °F - 41.0 °F 76% 30.04 in 10.0 mi NNW 6.9 mph - N/A   Overcast
2:45 PM 50.0 °F - 41.0 °F 71% 30.05 in 10.0 mi NNW 8.1 mph - N/A   Mostly Cloudy
3:05 PM 50.0 °F - 39.2 °F 66% 30.05 in 10.0 mi WNW 12.7 mph - N/A   Mostly Cloudy
3:25 PM 48.2 °F - 39.2 °F 71% 30.06 in 10.0 mi North 11.5 mph 19.6 mph N/A Rain Light Rain
3:45 PM 48.2 °F - 37.4 °F 66% 30.07 in 10.0 mi North 12.7 mph 17.3 mph N/A   Overcast
4:05 PM 48.2 °F - 37.4 °F 66% 30.08 in 10.0 mi North 5.8 mph - N/A   Overcast
4:25 PM 48.2 °F - 37.4 °F 66% 30.09 in 10.0 mi NNW 5.8 mph - N/A   Scattered Clouds
4:45 PM 46.4 °F 44.3 °F 37.4 °F 71% 30.09 in 10.0 mi NNW 4.6 mph - N/A   Mostly Cloudy
5:05 PM 46.4 °F 45.2 °F 37.4 °F 71% 30.10 in 10.0 mi NNW 3.5 mph - N/A   Overcast
5:25 PM 46.4 °F 45.2 °F 37.4 °F 71% 30.11 in 10.0 mi WNW 3.5 mph - N/A   Overcast
5:45 PM 46.4 °F 45.2 °F 39.2 °F 76% 30.11 in 10.0 mi WNW 3.5 mph - N/A   Overcast
6:05 PM 44.6 °F 42.2 °F 39.2 °F 81% 30.12 in 10.0 mi NW 4.6 mph - N/A   Overcast
6:25 PM 44.6 °F 42.2 °F 37.4 °F 76% 30.13 in 10.0 mi NW 4.6 mph - N/A   Scattered Clouds
6:45 PM 42.8 °F 40.1 °F 37.4 °F 81% 30.13 in 10.0 mi NW 4.6 mph - N/A   Partly Cloudy
7:05 PM 41.0 °F 37.1 °F 37.4 °F 87% 30.13 in 10.0 mi WNW 5.8 mph - N/A   Clear
7:25 PM 41.0 °F 39.0 °F 37.4 °F 87% 30.14 in 10.0 mi NW 3.5 mph - N/A   Clear
7:45 PM 41.0 °F 39.0 °F 37.4 °F 87% 30.15 in 10.0 mi NW 3.5 mph - N/A   Clear
8:05 PM 39.2 °F 37.0 °F 37.4 °F 93% 30.15 in 10.0 mi WNW 3.5 mph - N/A   Clear
8:25 PM 39.2 °F 35.9 °F 37.4 °F 93% 30.16 in 10.0 mi WNW 4.6 mph - N/A   Clear
8:45 PM 39.2 °F 35.0 °F 35.6 °F 87% 30.17 in 10.0 mi WNW 5.8 mph - N/A   Clear
9:05 PM 39.2 °F 35.9 °F 35.6 °F 87% 30.17 in 10.0 mi WNW 4.6 mph - N/A   Clear
9:25 PM 37.4 °F - 35.6 °F 93% 30.18 in 10.0 mi Calm Calm - N/A   Clear
9:45 PM 37.4 °F - 35.6 °F 93% 30.18 in 10.0 mi Calm Calm - N/A   Clear
10:05 PM 35.6 °F - 35.6 °F 100% 30.18 in 2.0 mi Calm Calm - N/A   Clear
10:25 PM 35.6 °F - 33.8 °F 93% 30.17 in 0.5 mi Calm Calm - N/A Fog Fog
10:45 PM 35.6 °F - 32.0 °F 87% 30.17 in 0.5 mi Calm Calm - N/A Fog Fog
11:05 PM 32.0 °F - 32.0 °F 100% 30.18 in 0.5 mi Calm Calm - N/A Fog Fog
11:25 PM 32.0 °F - 32.0 °F 100% 30.18 in 0.5 mi Calm Calm - N/A Fog Fog
11:45 PM 32.0 °F - 32.0 °F 100% 30.18 in 0.5 mi Calm Calm - N/A Fog Fog